Regional Weather Roundup
Issued by NWS

Home | Current Version | Previous Version | Graphics & Text | Print | Product List | Glossary On
Versions: 1 2 3 4 5 6 7 8 9 10 11 12 13 14 15 16 17 18 19 20 21 22 23 24 25 26 27 28 29 30 31 32 33 34 35 36 37 38 39 40 41 42 43 44 45 46 47 48 49 50
000
ASUS43 KMKX 070321
RWRWI

WISCONSIN REGIONAL WEATHER ROUNDUP
NATIONAL WEATHER SERVICE MILWAUKEE/SULLIVAN WI
900 PM CST TUE DEC 06 2016

NOTE: "FAIR" INDICATES FEW OR NO CLOUDS BELOW 12,000 FEET WITH NO
SIGNIFICANT WEATHER AND/OR OBSTRUCTIONS TO VISIBILITY.

WIZ001-002-006>008-014>016-023>028-070400-
NORTHWEST WISCONSIN

CITY           SKY/WX    TMP DP  RH WIND       PRES   REMARKS
SUPERIOR ARPT  LGT SNOW  22  17  81 SW18G26   29.56R WCI   7
ASHLAND        FLURRIES  22  15  75 SW17G28   29.59R WCI   8
HAYWARD        LGT SNOW  21  13  71 SW14G25   29.62R WCI   8
SIREN          FLURRIES  21  12  69 W20G28    29.67R WCI   5
CUMBERLAND     LGT SNOW  19  14  79 SW17G29   29.68R WCI   4
RICE LAKE      LGT SNOW  21  15  78 SW14G24   29.71R WCI   8
CHETEK         FLURRIES  20  14  76 MISG      29.72R
LADYSMITH      LGT SNOW  22  16  79 SW17      29.69R WCI   7
EAU CLAIRE     FLURRIES  21  14  74 SW17G30   29.77R WCI   7
MENOMONIE      FLURRIES  22  15  76 SW17G23   29.77R WCI   8
NEW RICHMOND   FLURRIES  20  12  70 W21G31    29.75R WCI   5
OSCEOLA        FLURRIES  22  13  70 W18G26    29.77R WCI   7
$$

WIZ003>005-009-010-017-018-070400-
NORTH CENTRAL WISCONSIN

CITY           SKY/WX    TMP DP  RH WIND       PRES   REMARKS
MANITOWISH WTR FLURRIES  19  16  87 SW18G24   29.58S WCI   4
ARBOR VITAE    FLURRIES  22  17  80 SW12G22   29.60S WCI  10
WOODRUFF       FLURRIES  22  17  80 SW12G22   29.60S WCI  10
RHINELANDER    CLOUDY    21  16  81 SW16G26   29.63S WCI   7
EAGLE RIVER    FLURRIES  20  14  78 SW13G22   29.60R WCI   8
LAND O LAKES   FLURRIES  21  15  78 SW12G18   29.60R WCI   9
PHILLIPS       FLURRIES  20  15  82 SW15G22   29.63R WCI   6
TOMAHAWK       FLURRIES  20  15  79 SW3       29.66R
MEDFORD        FLURRIES  20  15  79 SW12G26   29.69R WCI   8
MERRILL        FLURRIES  22  16  79 SW16G25   29.70S WCI   8
$$

WIZ029-030-035-036-043>047-070400-
CENTRAL WISCONSIN

CITY           SKY/WX    TMP DP  RH WIND       PRES   REMARKS
WAUSAU         CLOUDY    22  16  78 W17G26    29.72R WCI   8
MOSINEE        CLOUDY    21  18  86 SW20G26   29.74R WCI   6
MARSHFIELD     FLURRIES  22  15  75 W20G26    29.73R WCI   7
STEVENS POINT  CLOUDY    22  15  73 W18G24    29.75S WCI   8
WAUPACA        CLOUDY    28  19  71 SW13      29.78R WCI  17
WAUTOMA        CLOUDY    25  17  72 SW16G24   29.80S WCI  12
WISC RAPIDS    CLOUDY    24  16  71 W13       29.78S WCI  12
CAMP DOUGLAS   MOCLDY    25  16  68 SW18      29.81S WCI  11
$$

WIZ011>013-019>022-031-037>040-048>050-070400-
NORTHEAST WISCONSIN

CITY           SKY/WX    TMP DP  RH WIND       PRES   REMARKS
ANTIGO         FLURRIES  20  15  81 SW16G24   29.69R WCI   6
SHAWANO        CLOUDY    27  18  67 W15G23    29.75S WCI  15
OCONTO         CLOUDY    26  17  66 W14G21    29.75R WCI  15
STURGEON BAY   CLOUDY    26  18  71 W16G26    29.74R WCI  14
GREEN BAY      CLOUDY    29  19  66 SW15G23   29.78R WCI  18
MANITOWOC      CLOUDY    27  18  69 MISG      29.79R
APPLETON       CLOUDY    27  16  63 SW18G25   29.77R WCI  13
CLINTONVILLE   CLOUDY    27  18  69 W13G21    29.76S WCI  16
OSHKOSH        CLOUDY    26  17  68 W12       29.80R WCI  16
$$

WIZ032>034-041-042-053>061-070400-
SOUTHWEST WISCONSIN

CITY           SKY/WX    TMP DP  RH WIND       PRES   REMARKS
LA CROSSE      CLOUDY    26  17  68 W15G24    29.87R WCI  14
SPARTA         CLOUDY    25  18  73 SW14G23   29.83S WCI  13
VIROQUA        CLOUDY    23  17  77 W22G35    29.83R WCI   8
BOSCOBEL       CLOUDY    28  16  60 W14G24    29.92R WCI  17
PRAIRIE DU CHI CLOUDY    26  15  63 W10G22    29.94R WCI  16
PLATTEVILLE    PTCLDY    26  18  73 W21G28    29.92R WCI  11
$$

WIZ056-057-062-063-064-067-068-070400-
SOUTH CENTRAL WISCONSIN

CITY           SKY/WX    TMP DP  RH WIND       PRES   REMARKS
REEDSBURG      CLOUDY    25  17  71 W13G26    29.86R WCI  13
BARABOO/DELLS  CLOUDY    25  17  69 W17G28    29.84S WCI  12
LONE ROCK      CLOUDY    27  17  66 W15G25    29.89R WCI  15
MINERAL POINT  CLOUDY    28  19  69 W20G35    29.88R WCI  15
MADISON        CLOUDY    26  17  68 W13G25    29.87R WCI  15
MIDDLETON      NOT AVBL
WATERTOWN      CLOUDY    26  19  75 SW10      29.87R WCI  17
MONROE         CLOUDY    27  19  74 W29G39    29.89R WCI  11
JANESVILLE     CLOUDY    28  19  69 W23G29    29.90R WCI  14
$$

WIZ051-052-058>065-066-070>072-070400-
SOUTHEAST WISCONSIN

CITY           SKY/WX    TMP DP  RH WIND       PRES   REMARKS
MILWAUKEE      CLOUDY    29  17  61 W15G28    29.88R WCI  18
WAUKESHA       CLOUDY    27  18  69 W15G24    29.88R WCI  15
MILWAUKEE/TIMM CLOUDY    27  16  63 W21G33    29.87R WCI  13
RACINE         CLOUDY    28  17  63 W15G25    29.90R WCI  16
BURLINGTON     CLOUDY    27  20  73 W12G22    29.90R WCI  17
KENOSHA        CLOUDY    28  19  69 W17G28    29.90R WCI  16
FOND DU LAC    CLOUDY    27  16  63 W12G21    29.83R WCI  17
SHEBOYGAN      CLOUDY    27  17  66 W23G29    29.82R WCI  12
WEST BEND      CLOUDY    27  19  74 W13G20    29.84S WCI  16
JUNEAU         CLOUDY    25  18  74 SW20      29.86R WCI  11
$$

LSZ147-162-070400-
LAKE SUPERIOR

STATION/POSITION TIME  TEMP    WIND        PRES    WAVE
                       AIR SEA DIR/SP/G            HT/PER
                 (UTC) (F)     (DEG/KT/KT) (MB)    (FT/S)
DEVILS ISLAND    0200   25     210/ 21/ 28 1001.2F
PORT WING        0140   24     200/ 13/ 19 1001.0F
SAXON HARBOR     0130   24     210/  8/ 13 1002.0S
$$

LMZ867-665-643>646-070400-
LAKE MICHIGAN

STATION/POSITION TIME  TEMP    WIND        PRES    WAVE
                       AIR SEA DIR/SP/G            HT/PER
                 (UTC) (F)     (DEG/KT/KT) (MB)    (FT/S)
CHAMBERS ISLAND  0140   29     220/ 15/ 21 1005.1R
NORTHPORT PIER   0130   33     260/ 11/ 18 1004.7R
SISTER BAY       0138   32     270/ 25/ 30   N/A
ALGOMA LAKESHORE 0136          260/ 18/ 27   N/A
KEWAUNEE LAKESHO 0148   28     290/ 18/ 25 1006.5R
SHEBOYGAN LAKESH 0200   27     260/ 25/ 31 1009.5R
PORT WASHINGTON  0204   28     280/ 17/ 28 1010.8S
MILWAUKEE LAKESH 0150   28     260/ 17/ 25   N/A
KENOSHA   LAKESH 0200   28     270/ 21/ 28 1012.2
$$

TC  - TEMPERATURE IN CELSIUS
VSB - VISIBILITY IN STATUTE MILES
WCI - WIND CHILL INDEX
HX  - HEAT INDEX





USA.gov is the U.S. government's official web portal to all federal, state and local government web resources and services.